Location: Alto Pass Reservoir
(37.5801°N, 89.3084°W)
Time: 12:57:31
(UTC+00:00)

NEOSSAT - Pass Details

Date: 28 September 2022
Orbit: 767 x 784 km, 98.4° (Epoch: 26 November)

Event Time Altitude Azimuth Distance (km) Brightness Sun altitude
Rises 01:42:59 0° 360° (N) 3,279 ? -23.7°
Reaches altitude 10° 01:45:36 10° 349° (NNW) 2,347 ? -24.2°
Maximum altitude 01:49:54 27° 292° (WNW) 1,466 ? -25.0°
Drops below altitude 10° 01:54:11 10° 236° (SW) 2,337 ? -25.8°
Sets 01:56:48 0° 224° (SW) 3,260 ? -26.3°
